| time (UTC) | temp C | wind direction | speed KPH | gust KPH | rain 1hr cm | rain 24hr cm | rain mn cm | humidity % | barometer mb |
| 20260508203537 | 20 | 207 | 1.6 | 6.4 | 0.00 | 0.00 | 0.00 | 43 | 1011.7 |
| 20260508203056 | 20 | 311 | 1.6 | 8.0 | 0.00 | 0.00 | 0.00 | 38 | 1011.8 |
| 20260508202522 | 20 | 207 | 1.6 | 8.0 | 0.00 | 0.00 | 0.00 | 39 | 1011.9 |
| 20260508202041 | 20 | 290 | 1.6 | 11.3 | 0.00 | 0.00 | 0.00 | 45 | 1012.0 |
| 20260508201600 | 20 | 231 | 3.2 | 11.3 | 0.00 | 0.00 | 0.00 | 42 | 1012.2 |
| 20260508201026 | 20 | 166 | 4.8 | 12.9 | 0.00 | 0.00 | 0.00 | 39 | 1012.6 |
| 20260508200546 | 20 | 178 | 6.4 | 19.3 | 0.00 | 0.00 | 0.00 | 40 | 1012.8 |
| 20260508200012 | 20 | 124 | 4.8 | 19.3 | 0.00 | 0.00 | 0.00 | 39 | 1013.0 |
| 20260508195530 | 20 | 140 | 3.2 | 11.3 | 0.00 | 0.03 | 0.00 | 43 | 1013.1 |
| 20260508195052 | 20 | 200 | 3.2 | 11.3 | 0.00 | 0.03 | 0.00 | 42 | 1013.2 |
| 20260508194512 | 20 | 178 | 0.0 | 16.1 | 0.00 | 0.03 | 0.00 | 42 | 1013.0 |
| 20260508194029 | 20 | 57 | 1.6 | 16.1 | 0.00 | 0.03 | 0.00 | 40 | 1013.2 |
| 20260508193549 | 20 | 248 | 4.8 | 12.9 | 0.00 | 0.03 | 0.00 | 41 | 1013.2 |
| 20260508193016 | 19 | 298 | 4.8 | 12.9 | 0.00 | 0.03 | 0.00 | 39 | 1013.2 |
| 20260508192537 | 19 | 248 | 1.6 | 6.4 | 0.00 | 0.03 | 0.00 | 41 | 1013.3 |
| 20260508192056 | 18 | 348 | 1.6 | 11.3 | 0.00 | 0.03 | 0.00 | 44 | 1013.2 |
| 20260508191518 | 18 | 119 | 1.6 | 11.3 | 0.00 | 0.03 | 0.00 | 44 | 1013.4 |
| 20260508191037 | 18 | 250 | 1.6 | 14.5 | 0.00 | 0.03 | 0.00 | 45 | 1013.5 |
| 20260508190505 | 19 | 146 | 4.8 | 12.9 | 0.00 | 0.03 | 0.00 | 48 | 1013.6 |
| 20260508190032 | 19 | 146 | 1.6 | 11.3 | 0.00 | 0.03 | 0.00 | 46 | 1013.7 |
| 20260508185556 | 20 | 346 | 3.2 | 12.9 | 0.00 | 0.03 | 0.00 | 50 | 1013.9 |
| 20260508185014 | 19 | 304 | 8.0 | 12.9 | 0.00 | 0.03 | 0.00 | 48 | 1014.0 |
| 20260508184548 | 19 | 165 | 3.2 | 8.0 | 0.00 | 0.03 | 0.00 | 50 | 1014.1 |
| 20260508184101 | 18 | 294 | 1.6 | 9.7 | 0.00 | 0.03 | 0.00 | 44 | 1014.1 |
| 20260508183517 | 18 | 157 | 4.8 | 9.7 | 0.00 | 0.03 | 0.00 | 50 | 1014.2 |
| 20260508183043 | 18 | 147 | 1.6 | 8.0 | 0.00 | 0.03 | 0.00 | 48 | 1014.2 |
| 20260508182601 | 18 | 122 | 4.8 | 8.0 | 0.00 | 0.03 | 0.00 | 49 | 1014.2 |
| 20260508182019 | 18 | 321 | 3.2 | 8.0 | 0.00 | 0.03 | 0.00 | 48 | 1014.3 |
| 20260508181605 | 18 | 49 | 0.0 | 8.0 | 0.00 | 0.03 | 0.00 | 46 | 1014.4 |
| 20260508181010 | 18 | 173 | 0.0 | 8.0 | 0.00 | 0.03 | 0.00 | 52 | 1014.5 |
| 20260508180532 | 18 | 204 | 1.6 | 12.9 | 0.00 | 0.03 | 0.00 | 55 | 1014.6 |
| 20260508180105 | 18 | 208 | 6.4 | 12.9 | 0.00 | 0.03 | 0.00 | 51 | 1014.5 |
| 20260508175513 | 18 | 57 | 3.2 | 9.7 | 0.00 | 0.03 | 0.00 | 54 | 1014.6 |
| 20260508175042 | 17 | 92 | 6.4 | 9.7 | 0.00 | 0.03 | 0.00 | 49 | 1014.6 |
| 20260508174620 | 17 | 105 | 3.2 | 9.7 | 0.00 | 0.03 | 0.00 | 47 | 1014.7 |
| 20260508174029 | 17 | 218 | 3.2 | 6.4 | 0.00 | 0.03 | 0.00 | 48 | 1014.9 |
| 20260508173550 | 17 | 168 | 3.2 | 11.3 | 0.00 | 0.03 | 0.00 | 51 | 1015.0 |
| 20260508173006 | 17 | 105 | 4.8 | 12.9 | 0.00 | 0.03 | 0.00 | 46 | 1015.1 |
| 20260508172538 | 17 | 71 | 6.4 | 12.9 | 0.00 | 0.03 | 0.00 | 49 | 1015.2 |
| 20260508172100 | 17 | 117 | 6.4 | 12.9 | 0.00 | 0.03 | 0.00 | 49 | 1015.4 |
| 20260508171526 | 17 | 224 | 1.6 | 6.4 | 0.00 | 0.03 | 0.00 | 46 | 1015.4 |
| 20260508171049 | 16 | 248 | 1.6 | 8.0 | 0.00 | 0.03 | 0.00 | 51 | 1015.5 |
| 20260508170516 | 16 | 327 | 3.2 | 8.0 | 0.00 | 0.03 | 0.00 | 51 | 1015.7 |
| 20260508170038 | 16 | 346 | 1.6 | 11.3 | 0.00 | 0.03 | 0.00 | 47 | 1015.7 |
| 20260508165559 | 16 | 107 | 4.8 | 11.3 | 0.00 | 0.03 | 0.00 | 49 | 1015.9 |
| 20260508165027 | 16 | 29 | 3.2 | 9.7 | 0.00 | 0.03 | 0.00 | 51 | 1015.9 |
| 20260508164548 | 17 | 35 | 3.2 | 6.4 | 0.00 | 0.03 | 0.00 | 52 | 1016.0 |
| 20260508164014 | 16 | 325 | 3.2 | 6.4 | 0.00 | 0.03 | 0.00 | 50 | 1016.2 |
| 20260508163530 | 16 | 304 | 0.0 | 8.0 | 0.00 | 0.03 | 0.00 | 47 | 1016.2 |
| 20260508163052 | 16 | 173 | 1.6 | 8.0 | 0.00 | 0.03 | 0.00 | 44 | 1016.4 |
| 20260508162509 | 16 | 92 | 1.6 | 9.7 | 0.00 | 0.03 | 0.00 | 48 | 1016.4 |
| 20260508162033 | 16 | 240 | 3.2 | 9.7 | 0.00 | 0.03 | 0.00 | 48 | 1016.5 |
| 20260508161548 | 16 | 170 | 4.8 | 9.7 | 0.00 | 0.03 | 0.00 | 50 | 1016.6 |
| 20260508161020 | 16 | 107 | 3.2 | 6.4 | 0.00 | 0.03 | 0.00 | 49 | 1016.8 |
| 20260508160538 | 16 | 16 | 1.6 | 4.8 | 0.00 | 0.03 | 0.00 | 49 | 1016.9 |
| 20260508160007 | 15 | 181 | 1.6 | 6.4 | 0.00 | 0.03 | 0.00 | 52 | 1017.0 |
| 20260508155544 | 15 | 159 | 1.6 | 6.4 | 0.00 | 0.03 | 0.00 | 49 | 1017.1 |
| 20260508155100 | 16 | 317 | 1.6 | 6.4 | 0.00 | 0.03 | 0.00 | 61 | 1017.1 |
| 20260508154518 | 15 | 239 | 1.6 | 6.4 | 0.00 | 0.03 | 0.00 | 53 | 1017.1 |
| 20260508154038 | 15 | 262 | 3.2 | 6.4 | 0.00 | 0.03 | 0.00 | 57 | 1017.2 |
| 20260508153549 | 15 | 265 | 3.2 | 9.7 | 0.00 | 0.03 | 0.00 | 59 | 1017.2 |
| 20260508153004 | 15 | 211 | 6.4 | 11.3 | 0.00 | 0.03 | 0.00 | 58 | 1017.2 |
| 20260508152535 | 15 | 130 | 1.6 | 6.4 | 0.00 | 0.03 | 0.00 | 59 | 1017.2 |
| 20260508152051 | 15 | 186 | 1.6 | 6.4 | 0.00 | 0.03 | 0.00 | 61 | 1017.3 |
| 20260508151517 | 15 | 215 | 0.0 | 4.8 | 0.00 | 0.03 | 0.00 | 72 | 1017.2 |
| 20260508151031 | 15 | 146 | 1.6 | 9.7 | 0.00 | 0.03 | 0.00 | 68 | 1017.3 |
| 20260508150535 | 14 | 188 | 1.6 | 9.7 | 0.00 | 0.03 | 0.00 | 72 | 1017.3 |
| 20260508150054 | 13 | 227 | 3.2 | 6.4 | 0.00 | 0.03 | 0.00 | 70 | 1017.4 |
| 20260508145512 | 14 | 159 | 1.6 | 6.4 | 0.00 | 0.03 | 0.00 | 75 | 1017.3 |
| 20260508145037 | 13 | 66 | 1.6 | 6.4 | 0.00 | 0.03 | 0.00 | 77 | 1017.4 |
| 20260508144605 | 13 | 61 | 3.2 | 6.4 | 0.00 | 0.03 | 0.00 | 74 | 1017.4 |
| 20260508144016 | 12 | 39 | 0.0 | 6.4 | 0.00 | 0.03 | 0.00 | 76 | 1017.4 |
| 20260508143535 | 12 | 66 | 1.6 | 6.4 | 0.00 | 0.03 | 0.00 | 78 | 1017.5 |
| 20260508143058 | 12 | 118 | 1.6 | 6.4 | 0.00 | 0.03 | 0.00 | 83 | 1017.5 |
| 20260508142514 | 12 | 29 | 4.8 | 6.4 | 0.00 | 0.03 | 0.00 | 81 | 1017.4 |
| 20260508142042 | 11 | 87 | 1.6 | 6.4 | 0.00 | 0.03 | 0.00 | 82 | 1017.5 |
| 20260508141509 | 11 | 123 | 3.2 | 6.4 | 0.00 | 0.03 | 0.00 | 84 | 1017.3 |
| 20260508141026 | 11 | 238 | 3.2 | 8.0 | 0.00 | 0.03 | 0.00 | 83 | 1017.4 |
| 20260508140545 | 11 | 156 | 1.6 | 6.4 | 0.00 | 0.03 | 0.00 | 87 | 1017.4 |
| 20260508140005 | 11 | 184 | 1.6 | 4.8 | 0.00 | 0.03 | 0.00 | 88 | 1017.5 |
| 20260508135533 | 10 | 144 | 1.6 | 4.8 | 0.00 | 0.05 | 0.00 | 90 | 1017.5 |
| 20260508135052 | 10 | 57 | 0.0 | 4.8 | 0.00 | 0.05 | 0.00 | 91 | 1017.5 |
| 20260508134527 | 10 | 161 | 1.6 | 6.4 | 0.00 | 0.05 | 0.00 | 91 | 1017.4 |
| 20260508134038 | 9 | 246 | 0.0 | 6.4 | 0.00 | 0.05 | 0.00 | 93 | 1017.5 |
| 20260508133559 | 8 | 88 | 3.2 | 4.8 | 0.00 | 0.05 | 0.00 | 92 | 1017.5 |
| 20260508133017 | 8 | 139 | 1.6 | 4.8 | 0.00 | 0.05 | 0.00 | 94 | 1017.5 |
| 20260508132544 | 8 | 152 | 1.6 | 4.8 | 0.00 | 0.05 | 0.00 | 96 | 1017.5 |
| 20260508132002 | 7 | 140 | 1.6 | 4.8 | 0.00 | 0.05 | 0.00 | 97 | 1017.5 |
| 20260508131522 | 7 | 153 | 0.0 | 6.4 | 0.00 | 0.05 | 0.00 | 98 | 1017.5 |
| 20260508131044 | 7 | 104 | 1.6 | 6.4 | 0.00 | 0.05 | 0.00 | 98 | 1017.4 |
| 20260508130501 | 7 | 154 | 0.0 | 4.8 | 0.00 | 0.05 | 0.00 | 98 | 1017.4 |
| 20260508130022 | 7 | 80 | 1.6 | 4.8 | 0.00 | 0.05 | 0.00 | 99 | 1017.5 |
| 20260508125544 | 7 | 135 | 0.0 | 3.2 | 0.00 | 0.08 | 0.00 | 99 | 1017.4 |
| 20260508125102 | 6 | 101 | 0.0 | 3.2 | 0.00 | 0.08 | 0.00 | 99 | 1017.4 |
| 20260508124521 | 6 | 107 | 0.0 | 4.8 | 0.00 | 0.08 | 0.00 | 99 | 1017.4 |
| 20260508124053 | 6 | 102 | 0.0 | 4.8 | 0.00 | 0.08 | 0.00 | 98 | 1017.4 |
| 20260508123508 | 6 | 138 | 0.0 | 4.8 | 0.00 | 0.08 | 0.00 | 99 | 1017.3 |
| 20260508123037 | 6 | 80 | 1.6 | 4.8 | 0.00 | 0.08 | 0.00 | 99 | 1017.3 |
| 20260508122602 | 6 | 76 | 1.6 | 3.2 | 0.00 | 0.08 | 0.00 | 99 | 1017.3 |
| 20260508122028 | 6 | 109 | 0.0 | 1.6 | 0.00 | 0.08 | 0.00 | 99 | 1017.2 |
| 20260508121551 | 5 | 86 | 0.0 | 1.6 | 0.00 | 0.08 | 0.00 | 99 | 1017.2 |
| 20260508121008 | 5 | 85 | 0.0 | 3.2 | 0.00 | 0.08 | 0.00 | 99 | 1017.1 |
| 20260508120539 | 5 | 86 | 0.0 | 3.2 | 0.00 | 0.08 | 0.00 | 99 | 1017.0 |
| 20260508120057 | 5 | 85 | 0.0 | 3.2 | 0.00 | 0.08 | 0.00 | 99 | 1017.0 |
| 20260508115524 | 4 | 77 | 1.6 | 3.2 | 0.00 | 0.15 | 0.00 | 99 | 1016.9 |
| 20260508115046 | 4 | 355 | 0.0 | 1.6 | 0.00 | 0.15 | 0.00 | 99 | 1016.9 |
| 20260508114506 | 3 | 355 | 0.0 | 1.6 | 0.00 | 0.15 | 0.00 | 99 | 1016.9 |
| 20260508114029 | 3 | 355 | 0.0 | 0.0 | 0.00 | 0.15 | 0.00 | 99 | 1016.7 |
| 20260508113545 | 3 | 355 | 0.0 | 1.6 | 0.00 | 0.15 | 0.00 | 99 | 1016.7 |
| 20260508113003 | 3 | 355 | 0.0 | 1.6 | 0.00 | 0.15 | 0.00 | 99 | 1016.7 |
| 20260508112529 | 3 | 355 | 0.0 | 1.6 | 0.00 | 0.15 | 0.00 | 98 | 1016.6 |
| 20260508112051 | 2 | 355 | 0.0 | 3.2 | 0.00 | 0.15 | 0.00 | 98 | 1016.5 |
| 20260508111516 | 3 | 355 | 0.0 | 3.2 | 0.00 | 0.15 | 0.00 | 98 | 1016.3 |
| 20260508111041 | 2 | 355 | 1.6 | 3.2 | 0.00 | 0.15 | 0.00 | 98 | 1016.4 |
| 20260508110606 | 2 | 355 | 0.0 | 3.2 | 0.00 | 0.15 | 0.00 | 98 | 1016.4 |
| 20260508110018 | 2 | 355 | 1.6 | 3.2 | 0.00 | 0.15 | 0.00 | 98 | 1016.2 |
| 20260508105536 | 2 | 355 | 0.0 | 3.2 | 0.00 | 0.15 | 0.00 | 98 | 1016.2 |
| 20260508105055 | 2 | 355 | 0.0 | 1.6 | 0.00 | 0.15 | 0.00 | 98 | 1016.1 |
| 20260508104522 | 2 | 355 | 0.0 | 0.0 | 0.00 | 0.15 | 0.00 | 98 | 1016.0 |
| 20260508104045 | 2 | 355 | 0.0 | 0.0 | 0.00 | 0.15 | 0.00 | 98 | 1015.9 |
| 20260508103502 | 2 | 355 | 0.0 | 1.6 | 0.00 | 0.15 | 0.00 | 98 | 1015.9 |
| 20260508103036 | 2 | 355 | 0.0 | 1.6 | 0.00 | 0.15 | 0.00 | 98 | 1015.7 |
| 20260508102549 | 2 | 355 | 0.0 | 0.0 | 0.00 | 0.15 | 0.00 | 98 | 1015.6 |
| 20260508102007 | 2 | 355 | 0.0 | 1.6 | 0.00 | 0.15 | 0.00 | 98 | 1015.5 |
| 20260508101527 | 2 | 355 | 0.0 | 1.6 | 0.00 | 0.15 | 0.00 | 98 | 1015.5 |
| 20260508101048 | 2 | 355 | 0.0 | 1.6 | 0.00 | 0.15 | 0.00 | 98 | 1015.5 |
| 20260508100506 | 2 | 355 | 0.0 | 1.6 | 0.00 | 0.15 | 0.00 | 98 | 1015.4 |
| 20260508100035 | 2 | 355 | 0.0 | 1.6 | 0.00 | 0.15 | 0.00 | 98 | 1015.5 |
| 20260508095557 | 2 | 355 | 0.0 | 0.0 | 0.00 | 0.15 | 0.00 | 98 | 1015.5 |
| 20260508095029 | 2 | 355 | 0.0 | 1.6 | 0.00 | 0.15 | 0.00 | 98 | 1015.4 |
| 20260508094607 | 2 | 355 | 0.0 | 3.2 | 0.00 | 0.15 | 0.00 | 98 | 1015.4 |
| 20260508094004 | 2 | 355 | 0.0 | 1.6 | 0.00 | 0.15 | 0.00 | 98 | 1015.3 |
| 20260508093536 | 2 | 355 | 0.0 | 0.0 | 0.00 | 0.15 | 0.00 | 98 | 1015.3 |
| 20260508093058 | 2 | 355 | 0.0 | 0.0 | 0.00 | 0.15 | 0.00 | 98 | 1015.3 |
| 20260508092525 | 3 | 355 | 0.0 | 1.6 | 0.00 | 0.15 | 0.00 | 98 | 1015.3 |
| 20260508092045 | 3 | 355 | 0.0 | 1.6 | 0.00 | 0.15 | 0.00 | 98 | 1015.4 |
| 20260508091507 | 3 | 355 | 0.0 | 1.6 | 0.00 | 0.15 | 0.00 | 98 | 1015.3 |
| 20260508091023 | 3 | 355 | 0.0 | 1.6 | 0.00 | 0.15 | 0.00 | 98 | 1015.3 |
| 20260508090545 | 3 | 355 | 0.0 | 1.6 | 0.00 | 0.15 | 0.00 | 98 | 1015.3 |
| 20260508090004 | 3 | 355 | 0.0 | 0.0 | 0.00 | 0.15 | 0.00 | 98 | 1015.3 |
| 20260508085531 | 3 | 355 | 0.0 | 3.2 | 0.00 | 0.18 | 0.00 | 98 | 1015.2 |
| 20260508085050 | 3 | 355 | 0.0 | 3.2 | 0.00 | 0.18 | 0.00 | 98 | 1015.2 |
| 20260508084517 | 3 | 355 | 0.0 | 1.6 | 0.00 | 0.18 | 0.00 | 98 | 1015.1 |
| 20260508084039 | 3 | 355 | 0.0 | 3.2 | 0.00 | 0.18 | 0.00 | 98 | 1015.1 |
| 20260508083507 | 3 | 355 | 0.0 | 3.2 | 0.00 | 0.18 | 0.00 | 98 | 1015.1 |
| 20260508083038 | 3 | 355 | 0.0 | 3.2 | 0.00 | 0.18 | 0.00 | 98 | 1015.1 |
| 20260508082506 | 3 | 355 | 1.6 | 3.2 | 0.00 | 0.18 | 0.00 | 98 | 1015.1 |
| 20260508082037 | 3 | 301 | 0.0 | 3.2 | 0.00 | 0.18 | 0.00 | 98 | 1015.0 |
| 20260508081618 | 3 | 300 | 0.0 | 3.2 | 0.00 | 0.18 | 0.00 | 98 | 1014.9 |
| 20260508081026 | 3 | 307 | 0.0 | 3.2 | 0.00 | 0.18 | 0.00 | 98 | 1014.8 |
| 20260508080549 | 3 | 322 | 0.0 | 3.2 | 0.00 | 0.18 | 0.00 | 98 | 1014.7 |
| 20260508080013 | 3 | 322 | 1.6 | 3.2 | 0.00 | 0.18 | 0.00 | 98 | 1014.7 |
| 20260508075535 | 4 | 314 | 1.6 | 4.8 | 0.00 | 0.25 | 0.00 | 98 | 1014.8 |
| 20260508075052 | 4 | 325 | 1.6 | 4.8 | 0.00 | 0.25 | 0.00 | 98 | 1014.9 |
| 20260508074510 | 4 | 334 | 3.2 | 4.8 | 0.00 | 0.25 | 0.00 | 98 | 1014.8 |
| 20260508074037 | 4 | 317 | 0.0 | 1.6 | 0.00 | 0.25 | 0.00 | 98 | 1014.7 |
| 20260508073507 | 4 | 317 | 0.0 | 3.2 | 0.00 | 0.25 | 0.00 | 98 | 1014.7 |
| 20260508073041 | 4 | 317 | 0.0 | 3.2 | 0.00 | 0.25 | 0.00 | 98 | 1014.8 |
| 20260508072559 | 4 | 315 | 0.0 | 3.2 | 0.00 | 0.25 | 0.00 | 98 | 1014.9 |
| 20260508072027 | 4 | 295 | 0.0 | 3.2 | 0.00 | 0.25 | 0.00 | 98 | 1014.9 |
| 20260508071552 | 4 | 311 | 0.0 | 3.2 | 0.00 | 0.25 | 0.00 | 98 | 1014.8 |
| 20260508071018 | 4 | 317 | 0.0 | 1.6 | 0.00 | 0.25 | 0.00 | 98 | 1014.9 |
| 20260508070538 | 5 | 317 | 0.0 | 1.6 | 0.00 | 0.25 | 0.00 | 98 | 1014.8 |
| 20260508070007 | 5 | 322 | 0.0 | 3.2 | 0.00 | 0.25 | 0.00 | 98 | 1014.9 |
| 20260508065529 | 5 | 321 | 0.0 | 3.2 | 0.00 | 0.25 | 0.00 | 98 | 1014.9 |
| 20260508065049 | 5 | 308 | 0.0 | 1.6 | 0.00 | 0.25 | 0.00 | 98 | 1014.9 |
| 20260508064511 | 5 | 308 | 0.0 | 1.6 | 0.00 | 0.25 | 0.00 | 98 | 1014.9 |
| 20260508064030 | 5 | 308 | 0.0 | 1.6 | 0.00 | 0.25 | 0.00 | 98 | 1015.0 |
| 20260508063548 | 5 | 308 | 0.0 | 1.6 | 0.00 | 0.25 | 0.00 | 98 | 1014.9 |
| 20260508063017 | 5 | 308 | 0.0 | 3.2 | 0.00 | 0.25 | 0.00 | 98 | 1014.8 |
| 20260508062536 | 5 | 309 | 0.0 | 3.2 | 0.00 | 0.25 | 0.00 | 98 | 1014.9 |
| 20260508062059 | 5 | 303 | 0.0 | 1.6 | 0.00 | 0.25 | 0.00 | 98 | 1014.9 |
| 20260508061526 | 5 | 302 | 0.0 | 1.6 | 0.00 | 0.25 | 0.00 | 98 | 1014.8 |
| 20260508061048 | 5 | 298 | 0.0 | 1.6 | 0.00 | 0.25 | 0.00 | 98 | 1014.7 |
| 20260508060514 | 5 | 292 | 0.0 | 1.6 | 0.00 | 0.25 | 0.00 | 98 | 1014.9 |
| 20260508060037 | 5 | 292 | 0.0 | 1.6 | 0.00 | 0.25 | 0.00 | 98 | 1014.9 |
| 20260508055505 | 5 | 292 | 0.0 | 1.6 | 0.00 | 0.28 | 0.00 | 98 | 1014.9 |
| 20260508055026 | 5 | 306 | 0.0 | 1.6 | 0.00 | 0.28 | 0.00 | 98 | 1014.8 |
| 20260508054546 | 5 | 306 | 0.0 | 1.6 | 0.00 | 0.28 | 0.00 | 98 | 1014.8 |
| 20260508054004 | 5 | 306 | 0.0 | 0.0 | 0.00 | 0.28 | 0.00 | 98 | 1014.8 |
| 20260508053526 | 5 | 306 | 0.0 | 1.6 | 0.00 | 0.28 | 0.00 | 98 | 1014.9 |
| 20260508053046 | 5 | 306 | 0.0 | 1.6 | 0.00 | 0.28 | 0.00 | 98 | 1014.9 |
| 20260508052510 | 5 | 306 | 0.0 | 1.6 | 0.00 | 0.28 | 0.00 | 98 | 1014.9 |
| 20260508052037 | 5 | 306 | 0.0 | 1.6 | 0.00 | 0.28 | 0.00 | 98 | 1014.8 |
| 20260508051557 | 5 | 306 | 0.0 | 3.2 | 0.00 | 0.28 | 0.00 | 98 | 1014.9 |
| 20260508051022 | 6 | 306 | 0.0 | 3.2 | 0.00 | 0.28 | 0.00 | 98 | 1014.9 |
| 20260508050541 | 6 | 297 | 0.0 | 3.2 | 0.00 | 0.28 | 0.00 | 98 | 1014.8 |
| 20260508050100 | 6 | 296 | 1.6 | 3.2 | 0.00 | 0.28 | 0.00 | 98 | 1014.7 |
| 20260508045520 | 6 | 311 | 0.0 | 3.2 | 0.00 | 0.28 | 0.00 | 98 | 1014.7 |
| 20260508045039 | 6 | 320 | 0.0 | 3.2 | 0.00 | 0.28 | 0.00 | 98 | 1014.6 |
| 20260508044507 | 6 | 320 | 0.0 | 3.2 | 0.00 | 0.28 | 0.00 | 98 | 1014.6 |
| 20260508044027 | 6 | 320 | 0.0 | 0.0 | 0.00 | 0.28 | 0.00 | 98 | 1014.5 |
| 20260508043547 | 6 | 320 | 0.0 | 0.0 | 0.00 | 0.28 | 0.00 | 98 | 1014.5 |
| 20260508042514 | 6 | 320 | 0.0 | 3.2 | 0.00 | 0.28 | 0.00 | 98 | 1014.4 |
| 20260508042040 | 6 | 320 | 0.0 | 3.2 | 0.00 | 0.28 | 0.00 | 98 | 1014.3 |
| 20260508041600 | 6 | 307 | 0.0 | 1.6 | 0.00 | 0.28 | 0.00 | 98 | 1014.3 |
| 20260508041027 | 6 | 307 | 0.0 | 0.0 | 0.00 | 0.28 | 0.00 | 98 | 1014.2 |
| 20260508040547 | 6 | 307 | 0.0 | 3.2 | 0.00 | 0.28 | 0.00 | 98 | 1014.2 |
| 20260508040015 | 7 | 307 | 0.0 | 3.2 | 0.00 | 0.28 | 0.00 | 98 | 1014.1 |
| 20260508035533 | 7 | 308 | 0.0 | 3.2 | 0.00 | 0.30 | 0.28 | 98 | 1014.0 |
| 20260508035005 | 7 | 323 | 1.6 | 3.2 | 0.00 | 0.30 | 0.28 | 98 | 1014.0 |
| 20260508034525 | 7 | 313 | 1.6 | 3.2 | 0.00 | 0.30 | 0.28 | 98 | 1014.0 |
| 20260508034046 | 7 | 313 | 0.0 | 1.6 | 0.00 | 0.30 | 0.28 | 98 | 1013.9 |
| 20260508033504 | 7 | 313 | 0.0 | 1.6 | 0.00 | 0.30 | 0.28 | 98 | 1013.8 |
| 20260508033024 | 7 | 313 | 0.0 | 1.6 | 0.00 | 0.30 | 0.28 | 98 | 1013.8 |
| 20260508032536 | 7 | 313 | 0.0 | 1.6 | 0.00 | 0.30 | 0.28 | 98 | 1014.0 |
| 20260508032058 | 7 | 313 | 0.0 | 0.0 | 0.00 | 0.30 | 0.28 | 98 | 1014.0 |
| 20260508031518 | 7 | 313 | 0.0 | 0.0 | 0.00 | 0.30 | 0.28 | 98 | 1014.0 |
| 20260508031039 | 7 | 313 | 0.0 | 3.2 | 0.00 | 0.30 | 0.28 | 98 | 1014.0 |
| 20260508030512 | 7 | 313 | 0.0 | 3.2 | 0.00 | 0.30 | 0.28 | 98 | 1013.9 |
| 20260508030029 | 7 | 313 | 0.0 | 4.8 | 0.00 | 0.30 | 0.28 | 98 | 1013.9 |
| 20260508025551 | 8 | 309 | 1.6 | 4.8 | 0.00 | 0.30 | 0.28 | 98 | 1013.7 |
| 20260508025005 | 8 | 317 | 0.0 | 1.6 | 0.00 | 0.30 | 0.28 | 98 | 1013.6 |
| 20260508024541 | 8 | 317 | 0.0 | 1.6 | 0.00 | 0.30 | 0.28 | 97 | 1013.5 |
| 20260508024046 | 8 | 317 | 0.0 | 1.6 | 0.00 | 0.30 | 0.28 | 98 | 1013.5 |
| 20260508023504 | 8 | 317 | 0.0 | 1.6 | 0.00 | 0.30 | 0.28 | 98 | 1013.4 |
| 20260508023032 | 8 | 333 | 0.0 | 3.2 | 0.00 | 0.30 | 0.28 | 97 | 1013.3 |
| 20260508022551 | 8 | 333 | 0.0 | 3.2 | 0.00 | 0.30 | 0.28 | 97 | 1013.2 |
| 20260508022010 | 8 | 333 | 0.0 | 0.0 | 0.00 | 0.30 | 0.28 | 97 | 1013.2 |
| 20260508021529 | 8 | 333 | 0.0 | 4.8 | 0.00 | 0.30 | 0.28 | 97 | 1013.2 |
| 20260508021048 | 8 | 333 | 0.0 | 4.8 | 0.00 | 0.30 | 0.28 | 97 | 1013.1 |
| 20260508020508 | 9 | 309 | 0.0 | 4.8 | 0.00 | 0.30 | 0.28 | 97 | 1013.1 |
| 20260508020036 | 9 | 309 | 1.6 | 4.8 | 0.00 | 0.30 | 0.28 | 97 | 1013.0 |
| 20260508015557 | 9 | 294 | 0.0 | 4.8 | 0.00 | 0.30 | 0.28 | 97 | 1013.0 |
| 20260508015014 | 9 | 298 | 1.6 | 4.8 | 0.00 | 0.30 | 0.28 | 97 | 1012.9 |
| 20260508014541 | 10 | 316 | 1.6 | 4.8 | 0.00 | 0.30 | 0.28 | 97 | 1012.7 |
| 20260508014054 | 10 | 300 | 1.6 | 4.8 | 0.00 | 0.30 | 0.28 | 97 | 1012.7 |
| 20260508013522 | 10 | 317 | 1.6 | 4.8 | 0.00 | 0.30 | 0.28 | 97 | 1012.6 |
| 20260508013045 | 10 | 308 | 0.0 | 6.4 | 0.00 | 0.30 | 0.28 | 97 | 1012.5 |
| 20260508012509 | 10 | 315 | 1.6 | 6.4 | 0.00 | 0.30 | 0.28 | 97 | 1012.4 |
| 20260508012041 | 10 | 323 | 3.2 | 4.8 | 0.00 | 0.30 | 0.28 | 96 | 1012.3 |
| 20260508011505 | 10 | 324 | 0.0 | 4.8 | 0.00 | 0.30 | 0.28 | 97 | 1012.2 |
| 20260508011025 | 10 | 323 | 0.0 | 4.8 | 0.00 | 0.30 | 0.28 | 96 | 1012.1 |
| 20260508010545 | 10 | 317 | 1.6 | 3.2 | 0.00 | 0.30 | 0.28 | 96 | 1012.0 |
| 20260508010003 | 10 | 311 | 0.0 | 3.2 | 0.00 | 0.30 | 0.28 | 96 | 1011.9 |
| 20260508005525 | 10 | 294 | 0.0 | 1.6 | 0.00 | 0.79 | 0.28 | 96 | 1011.9 |
| 20260508005049 | 10 | 294 | 0.0 | 0.0 | 0.00 | 0.79 | 0.28 | 96 | 1011.8 |
| 20260508004504 | 11 | 294 | 0.0 | 0.0 | 0.00 | 0.79 | 0.28 | 96 | 1011.7 |
| 20260508004034 | 11 | 294 | 0.0 | 1.6 | 0.00 | 0.79 | 0.28 | 96 | 1011.7 |
| 20260508003556 | 11 | 294 | 0.0 | 1.6 | 0.00 | 0.79 | 0.28 | 95 | 1011.7 |
| 20260508003023 | 11 | 294 | 0.0 | 1.6 | 0.00 | 0.79 | 0.28 | 95 | 1011.5 |
| 20260508002547 | 11 | 294 | 0.0 | 0.0 | 0.00 | 0.79 | 0.28 | 95 | 1011.4 |
| 20260508002004 | 11 | 294 | 0.0 | 0.0 | 0.00 | 0.79 | 0.28 | 94 | 1011.4 |
| 20260508001526 | 11 | 294 | 0.0 | 0.0 | 0.00 | 0.79 | 0.28 | 94 | 1011.2 |
| 20260508001048 | 11 | 294 | 0.0 | 0.0 | 0.00 | 0.79 | 0.28 | 93 | 1011.2 |
| 20260508000520 | 11 | 294 | 0.0 | 1.6 | 0.00 | 0.79 | 0.28 | 92 | 1011.3 |
| 20260508000042 | 12 | 294 | 0.0 | 3.2 | 0.00 | 0.79 | 0.28 | 92 | 1011.3 |
| 20260507235601 | 12 | 294 | 0.0 | 3.2 | 0.00 | 0.97 | 0.28 | 91 | 1011.3 |
| 20260507235022 | 12 | 285 | 0.0 | 3.2 | 0.00 | 0.97 | 0.28 | 90 | 1011.3 |
| 20260507234542 | 12 | 277 | 0.0 | 3.2 | 0.00 | 0.97 | 0.28 | 89 | 1011.3 |
| 20260507234002 | 12 | 277 | 0.0 | 3.2 | 0.00 | 0.97 | 0.28 | 88 | 1011.2 |
| 20260507233522 | 13 | 259 | 0.0 | 4.8 | 0.00 | 0.97 | 0.28 | 87 | 1011.3 |
| 20260507233047 | 13 | 259 | 0.0 | 4.8 | 0.00 | 0.97 | 0.28 | 85 | 1011.2 |
| 20260507232505 | 14 | 298 | 0.0 | 3.2 | 0.00 | 0.97 | 0.28 | 81 | 1011.2 |
| 20260507232034 | 14 | 267 | 0.0 | 3.2 | 0.00 | 0.97 | 0.28 | 81 | 1011.3 |
| 20260507231559 | 14 | 262 | 0.0 | 4.8 | 0.00 | 0.97 | 0.28 | 82 | 1011.3 |
| 20260507231027 | 14 | 250 | 1.6 | 6.4 | 0.00 | 0.97 | 0.28 | 80 | 1011.4 |
| 20260507230546 | 14 | 275 | 1.6 | 4.8 | 0.00 | 0.97 | 0.28 | 83 | 1011.4 |
| 20260507230005 | 14 | 333 | 1.6 | 4.8 | 0.00 | 0.97 | 0.28 | 81 | 1011.3 |
| 20260507225524 | 14 | 274 | 1.6 | 4.8 | 0.00 | 0.97 | 0.28 | 82 | 1011.4 |
| 20260507225045 | 14 | 321 | 0.0 | 3.2 | 0.00 | 0.97 | 0.28 | 82 | 1011.4 |
| 20260507224505 | 14 | 321 | 0.0 | 3.2 | 0.00 | 0.97 | 0.28 | 84 | 1011.5 |
| 20260507224026 | 13 | 321 | 0.0 | 1.6 | 0.00 | 0.97 | 0.28 | 87 | 1011.4 |
| 20260507223555 | 13 | 321 | 0.0 | 1.6 | 0.00 | 0.97 | 0.28 | 87 | 1011.4 |
| 20260507223014 | 13 | 321 | 0.0 | 1.6 | 0.00 | 0.97 | 0.28 | 87 | 1011.5 |
| 20260507222543 | 13 | 321 | 0.0 | 3.2 | 0.00 | 0.97 | 0.28 | 87 | 1011.3 |
| 20260507222001 | 14 | 321 | 0.0 | 3.2 | 0.00 | 0.97 | 0.28 | 87 | 1011.2 |
| 20260507221538 | 14 | 321 | 0.0 | 4.8 | 0.00 | 0.97 | 0.28 | 85 | 1011.2 |
| 20260507221054 | 14 | 328 | 0.0 | 4.8 | 0.00 | 0.97 | 0.28 | 83 | 1011.1 |
| 20260507220523 | 15 | 323 | 0.0 | 4.8 | 0.00 | 0.97 | 0.28 | 79 | 1010.9 |
| 20260507220046 | 15 | 262 | 0.0 | 3.2 | 0.00 | 0.97 | 0.28 | 78 | 1011.0 |
| 20260507215507 | 16 | 330 | 1.6 | 4.8 | 0.00 | 0.97 | 0.28 | 70 | 1011.0 |
| 20260507215034 | 15 | 360 | 1.6 | 4.8 | 0.00 | 0.97 | 0.28 | 65 | 1010.9 |
| 20260507214603 | 15 | 295 | 1.6 | 6.4 | 0.00 | 0.97 | 0.28 | 71 | 1010.9 |
| 20260507214024 | 15 | 308 | 3.2 | 6.4 | 0.00 | 0.97 | 0.28 | 77 | 1010.9 |
| 20260507213544 | 15 | 247 | 1.6 | 8.0 | 0.00 | 0.97 | 0.28 | 73 | 1010.8 |
| 20260507213104 | 16 | 244 | 1.6 | 8.0 | 0.00 | 0.97 | 0.28 | 77 | 1010.6 |
| 20260507212528 | 15 | 67 | 0.0 | 9.7 | 0.00 | 0.97 | 0.28 | 79 | 1010.6 |
| 20260507212053 | 15 | 130 | 3.2 | 9.7 | 0.00 | 0.97 | 0.28 | 81 | 1010.6 |
| 20260507211523 | 15 | 99 | 0.0 | 6.4 | 0.00 | 0.97 | 0.28 | 83 | 1010.6 |
| 20260507211039 | 15 | 209 | 1.6 | 6.4 | 0.00 | 0.97 | 0.28 | 80 | 1010.7 |
| 20260507210603 | 15 | 245 | 3.2 | 6.4 | 0.00 | 0.97 | 0.28 | 83 | 1010.7 |
| 20260507210031 | 15 | 160 | 1.6 | 6.4 | 0.00 | 0.97 | 0.28 | 83 | 1010.7 |
| 20260507205551 | 14 | 192 | 1.6 | 6.4 | 0.00 | 0.97 | 0.28 | 83 | 1010.8 |
| 20260507205009 | 14 | 198 | 1.6 | 8.0 | 0.00 | 0.97 | 0.28 | 83 | 1010.8 |
| 20260507204530 | 14 | 235 | 1.6 | 8.0 | 0.00 | 0.97 | 0.28 | 82 | 1010.7 |
| 20260507204054 | 14 | 150 | 1.6 | 4.8 | 0.00 | 0.97 | 0.28 | 83 | 1010.7 |